392  
ASUS43 KIWX 131510  
RWRIWX  
 
KIWX WEATHER ROUNDUP  
NATIONAL WEATHER SERVICE NORTHERN INDIANA  
1100 AM EDT THU AUG 13 2020  
 
NOTE: "FAIR" INDICATES FEW OR NO CLOUDS BELOW 12,000 FEET WITH NO  
SIGNIFICANT WEATHER AND/OR S TO VISIBILITY
.  
 
* THESE STATIONS ARE NOT UNDER NWS QUALITY CONTROL. THEY ALSO MAY NOT  
REPORT WEATHER SUCH AS PRECIPITATION OR FOG.
 
 
INZ001>027-131600-  
NORTHERN INDIANA  
 
CITY SKY/WX TMP DP RH WIND PRES REMARKS
 
GARY* PTSUNNY 77 63 61 CALM 30.13R  
VALPARAISO SUNNY 74 64 71 E5 30.13S  
MICHIGAN CITY* MOSUNNY 73 68 83 NE3 30.13S  
LAPORTE* MOSUNNY 72 61 68 E7 30.14S  
KNOX* SUNNY 73 63 68 E3 30.12S  
SOUTH BEND PTSUNNY 75 60 59 SE5 30.14S  
ELKHART* PTSUNNY 72 63 73 CALM 30.14S  
GOSHEN MOSUNNY 77 62 59 SE6 30.13F  
MONTICELLO* SUNNY 75 65 70 CALM 30.10F  
LOGANSPORT* SUNNY 75 64 69 CALM 30.12S  
ROCHESTER* SUNNY 77 63 61 E6 30.12F  
PLYMOUTH* SUNNY 73 63 68 NE5 30.12F  
AUBURN* SUNNY 75 63 64 E6 30.15S  
FORT WAYNE MOSUNNY 75 62 64 E10 30.13F  
HUNTINGTON* SUNNY N/A N/A N/A E5 30.12F  
PERU/GRISSOM SUNNY 77 67 72 E6 30.10F  
 

 
INZ028>050-131600-  
CENTRAL INDIANA  
 
CITY SKY/WX TMP DP RH WIND PRES REMARKS
 
LAFAYETTE SUNNY 80 66 62 E7 30.09F  
KOKOMO* SUNNY 77 66 68 E7 30.12F  
MARION* SUNNY 74 66 75 CALM 30.12S  
MUNCIE* SUNNY 78 67 68 CALM 30.10F  
PORTLAND* FAIR 73 59 60 CALM 30.12S  
INDIANAPOLIS PTSUNNY 79 67 66 E6 30.08F  
 

 
MIZ043>046-050>051-056>058-064>065-071>073-077>080-131600-  
SOUTHWEST LOWER MICHIGAN  
 
CITY SKY/WX TMP DP RH WIND PRES REMARKS
 
BATTLE CREEK PTSUNNY 78 58 49 NE7 30.16S  
BENTON HARBOR PTSUNNY 73 62 68 E3 30.14S  
COLDWATER* MOSUNNY 74 58 58 E5 30.15S  
HILLSDALE* MOSUNNY 76 61 58 E7 30.16S  
HOLLAND MOSUNNY 79 59 50 E6 30.15F  
GRAND RAPIDS PTSUNNY 79 62 56 E7 30.16S  
KALAMAZOO PTSUNNY 76 59 55 NE6 30.15F  
STURGIS* PTSUNNY 71 64 77 E3 30.14S  
THREE RIVERS* FAIR 74 60 60 NE3 30.15S HAZE  
 

 
OHZ001>008-015>018-024>025-131600-  
NORTHWEST OHIO  
 
CITY SKY/WX TMP DP RH WIND PRES REMARKS
 
WAUSEON* FAIR 77 68 73 NE10 30.13F  
DEFIANCE MOSUNNY 78 63 59 E9 30.13S  
FINDLAY SUNNY 80 62 54 NE10 30.12S  
OTTAWA* FAIR 77 61 57 NE7 30.14S  
TOLEDO EXPRESS MOSUNNY 79 62 56 E6 30.13S  
VAN WERT* FAIR 75 63 64 E8 30.12F  
LIMA SUNNY 78 64 61 E9 30.12S  
 

 
AND FOR LAKE MICHIGAN COASTAL AND OPEN LAKE BUOY OBSERVATIONS  
 
STATION/POSITION TEMP WIND PRES VSBY WAVE
 
AIR SEA DIR/SP/G HT/PER  
(F) (DEG/KT/KT) (MB) (MI) (FT/S)  
CALUMET HARBOR 73 30/ 3/ 4 1019.5  
SAINT JOSEPH 73 80/ 2/ 3 1021.0  
SOUTH LAKE BUOY 75 120/ 4/ 4 1020.2F 0  
MICHIGAN CITY 73 74 N/A 1/ 3  
 

 

 
 
 
CLICK HERE TO GO TO PREVIOUS BULLETINS.

The Nexlab IN Page
The Nexlab OH Page
The Nexlab MI Page Main Text Page